Change the Weather History Date:

Monday, December 24, 2012

  Actual Average Record
Temperature  
Mean Temperature -6 °F -  
Max Temperature 1 °F 5 °F 41 °F (1997)
Min Temperature -13 °F -3 °F -35 °F (2004)
Degree Days  
Heating Degree Days 72    
Moisture  
Dew Point -14 °F    
Average Humidity 62    
Maximum Humidity 66    
Minimum Humidity 46    
Precipitation  
Precipitation 0.00 in - - ()
Sea Level Pressure  
Sea Level Pressure 29.89 in    
Wind  
Wind Speed 35 mph (ESE)    
Max Wind Speed 41 mph    
Max Gust Speed 56 mph    
Visibility 6 miles    
Events Snow    
Averages and records for this station are not official NWS values.
T = Trace of Precipitation, MM = Missing Value Source: NWS Daily Summary

Daily Weather History Graph

Daily Weather History Graph

Search for Another Location

Airport or City:

Trip Planner

Search our weather history database for the weather conditions in past years. The results will help you decide how hot, cold, wet, or windy it might be!

Date:

Astronomy

Dec. 24, 2012 Rise Set
Actual Time 10:35 AM AKST 2:49 PM AKST
Civil Twilight 9:18 AM AKST 4:07 PM AKST
Nautical Twilight 8:09 AM AKST 5:16 PM AKST
Astronomical Twilight 7:10 AM AKST 6:15 PM AKST
Moon 1:00 PM AKST (12/24) 6:42 AM AKST (12/24)
Length of Visible Light 6h 49m
Length of Day
4h 14m
Waxing Gibbous, 89% of the Moon is Illuminated
Dec 24
Waxing Gibbous
Dec 28
Full
Jan 4
Last Quarter
Jan 11
New
Jan 18
First Quarter

Hourly Weather History & Observations

Time (AKST) Temp. Windchill Dew Point Humidity Pressure Visibility Wind Dir Wind Speed Gust Speed Precip Events Conditions
12:53 AM -7.1 °F -35.4 °F -18.0 °F 59% 29.93 in 10.0 mi ESE 29.9 mph 42.6 mph N/A   Clear
1:53 AM -7.1 °F -37.3 °F -17.0 °F 62% 29.93 in 8.0 mi ESE 35.7 mph 47.2 mph N/A   Clear
2:53 AM -7.1 °F -36.2 °F -17.0 °F 62% 29.94 in 8.0 mi ESE 32.2 mph 49.5 mph N/A   Clear
3:53 AM -7.1 °F -37.3 °F -17.0 °F 62% 29.92 in 8.0 mi ESE 35.7 mph 44.9 mph N/A   Clear
4:53 AM -7.1 °F -36.6 °F -17.0 °F 62% 29.92 in 10.0 mi ESE 33.4 mph 44.9 mph N/A   Clear
5:53 AM -7.1 °F -37.7 °F -17.0 °F 62% 29.91 in 6.0 mi ESE 36.8 mph 50.6 mph N/A   Haze
6:29 AM -7.6 °F -39.4 °F -16.6 °F 65% 29.72 in 2.5 mi ESE 40.3 mph 52.9 mph N/A Snow Light Snow
6:53 AM -7.1 °F -38.7 °F -16.1 °F 65% 29.91 in 2.0 mi ESE 40.3 mph 54.1 mph N/A Snow Blowing Snow
7:40 AM -7.6 °F -39.1 °F -16.6 °F 65% 29.72 in 3.0 mi East 39.1 mph 51.8 mph N/A Snow Light Snow
7:53 AM -7.1 °F -38.7 °F -16.1 °F 65% 29.91 in 2.5 mi ESE 40.3 mph 54.1 mph N/A Snow Blowing Snow
8:19 AM -7.6 °F -39.4 °F -16.6 °F 65% 29.73 in 4.0 mi ESE 40.3 mph 56.4 mph N/A Snow Blowing Snow
8:53 AM -7.1 °F -38.0 °F -16.1 °F 65% 29.91 in 4.0 mi East 38.0 mph 47.2 mph N/A Snow Blowing Snow
9:32 AM -7.6 °F -39.1 °F -16.6 °F 65% 29.74 in 2.5 mi ESE 39.1 mph 47.2 mph N/A Snow Blowing Snow
9:41 AM -7.6 °F -39.1 °F -16.6 °F 65% 29.74 in 3.0 mi ESE 39.1 mph 54.1 mph N/A Snow Blowing Snow
9:53 AM -6.0 °F -36.2 °F -16.1 °F 62% 29.93 in 3.0 mi ESE 36.8 mph 51.8 mph N/A Snow Blowing Snow
10:53 AM -5.1 °F -34.9 °F -14.1 °F 65% 29.95 in 3.0 mi ESE 36.8 mph 55.2 mph N/A Snow Blowing Snow
11:00 AM -5.8 °F -34.5 °F -14.8 °F 65% 29.77 in 2.0 mi ESE 32.2 mph 55.2 mph N/A Snow Blowing Snow
11:08 AM -5.8 °F -35.6 °F -14.8 °F 65% 29.77 in 3.0 mi ESE 35.7 mph 44.9 mph N/A Snow Blowing Snow
11:14 AM -5.8 °F -36.9 °F -14.8 °F 65% 29.77 in 1.8 mi ESE 40.3 mph 52.9 mph N/A Snow Blowing Snow
11:23 AM -5.8 °F -34.5 °F -14.8 °F 65% 29.77 in 8.0 mi ESE 32.2 mph 48.3 mph N/A Snow Blowing Snow
11:53 AM -4.0 °F -32.8 °F -14.1 °F 62% 29.96 in 10.0 mi East 34.5 mph 47.2 mph N/A   Scattered Clouds
12:53 PM -2.9 °F -28.6 °F -13.0 °F 62% 29.96 in 10.0 mi East 26.5 mph 39.1 mph N/A   Scattered Clouds
1:53 PM -2.9 °F -31.3 °F -13.0 °F 62% 29.95 in 10.0 mi East 34.5 mph 46.0 mph N/A   Mostly Cloudy
2:53 PM -2.9 °F -33.2 °F -11.9 °F 65% 29.93 in 10.0 mi East 41.4 mph 50.6 mph N/A   Mostly Cloudy
3:53 PM -2.9 °F -32.3 °F -11.9 °F 65% 29.93 in 10.0 mi East 38.0 mph 51.8 mph N/A   Mostly Cloudy
4:53 PM -2.0 °F -30.4 °F -11.0 °F 66% 29.93 in 10.0 mi ESE 35.7 mph 48.3 mph N/A   Scattered Clouds
5:53 PM -0.9 °F -28.2 °F -11.0 °F 62% 29.93 in 6.0 mi East 33.4 mph 47.2 mph N/A Snow Blowing Snow
6:53 PM -0.9 °F -27.5 °F -11.0 °F 62% 29.94 in 5.0 mi East 31.1 mph 46.0 mph N/A Snow Blowing Snow
7:53 PM -0.9 °F -28.5 °F -11.0 °F 62% 29.94 in 7.0 mi East 34.5 mph 47.2 mph N/A Snow Blowing Snow
8:53 PM -0.0 °F -27.0 °F -9.9 °F 63% 29.95 in 4.0 mi East 33.4 mph 49.5 mph 0.00 in Snow Blowing Snow
9:53 PM -0.0 °F -28.6 °F -9.9 °F 63% 29.96 in 4.0 mi ESE 39.1 mph 51.8 mph 0.00 in   Clear
10:53 PM -0.0 °F -27.6 °F -9.0 °F 66% 29.95 in 5.0 mi East 35.7 mph 50.6 mph 0.00 in   Haze
11:53 PM 1.9 °F -24.6 °F -9.0 °F 60% 29.94 in 9.0 mi East 34.5 mph 42.6 mph 0.00 in   Clear